Regional Weather Roundup
Issued by NWS Sterling, VA

Home | Current Version | Previous Version | Text Only | Print | Product List | Glossary Off
Versions: 1 2 3 4 5 6 7 8 9 10 11 12 13 14 15 16 17 18 19 20 21 22 23 24 25 26 27 28

000
ASUS41 KLWX 051210
RWRLWX

REGIONAL WEATHER ROUNDUP
NATIONAL WEATHER SERVICE BALTIMORE MD/WASHINGTON DC
800 AM EDT THU MAY 05 2016

Note: "FAIR" indicates few or no clouds below 12,000 feet
with no significant weather and/or obstructions to visibility.
 TC=TEMPERATURE CELSIUS

 * =Non NWS site. Station does not report precipitation (e.g. rain,
    snow, etc.), thunder, or fog.

DCZ001-MDZ009-015-VAZ040>042-051-053>054-051300-
WASHINGTON METRO

CITY           SKY/WX    TMP DP  RH WIND       PRES   REMARKS
WASHINGTON NAT DRIZZLE   51  49  92 NE9       29.67S FOG
DULLES         CLOUDY    51  47  86 NE9       29.67R FOG
ANDREWS AFB    CLOUDY    49  48  95 E8        29.66R FOG
FT BELVOIR     CLOUDY    51  48  91 VRB1      29.67R
QUANTICO       CLOUDY    53  49  86 E16       29.67R
COLLEGE PARK*  CLOUDY    50  46  87 CALM      29.67R
LEESBURG*      CLOUDY    52  52 100 NE8       29.68S
GAITHERSBURG*  CLOUDY    48  45  87 CALM      29.71S

$$

MDZ006>007-011-014-051300-
BALTIMORE METRO

CITY           SKY/WX    TMP DP  RH WIND       PRES   REMARKS
BWI AIRPORT    DRZL/FOG  50  48  93 NE7       29.66F VSB 1
MD SCIENCE CTR   N/A     51  47  86 MISG      29.68R
MARTIN STATE   CLOUDY    52  52 100 N7        29.69R FOG
ANNAPOLIS      CLOUDY    51  48  89 NE9       29.66S FOG
FORT MEADE*    CLOUDY    50  46  87 NE3       29.69S

$$

MDZ012-015-019>023-051300-
MARYLAND EASTERN SHORE

CITY           SKY/WX    TMP DP  RH WIND       PRES   REMARKS
OCEAN CITY     CLOUDY    49  46  90 NE14G24   29.65R
SALISBURY      CLOUDY    49  46  90 NE13      29.65R
CAMBRIDGE*     CLOUDY    48  45  87 NE8       29.65R
EASTON*        CLOUDY   N/A N/A N/A NE8       29.69F

$$

MDZ017>025-051300-
SOUTHERN MARYLAND

CITY           SKY/WX    TMP DP  RH WIND       PRES   REMARKS
PATUXENT RIVER CLOUDY    50  47  89 NE10      29.65R
ST INIGOES     CLOUDY    51  48  89 NE8       29.64R
LEONARDTOWN*   CLOUDY    50  46  87 NE5       29.66R

$$

MDZ003>005-051300-
NORTH CENTRAL MARYLAND

CITY           SKY/WX    TMP DP  RH WIND       PRES   REMARKS
FREDERICK*     CLOUDY    50  50 100 NE3       29.71R
HAGERSTOWN APT CLOUDY    52  45  77 NE9       29.68R
WESTMINSTER*   CLOUDY    48  28  46 NE7       29.67R HAZE

$$

MDZ501>502-051300-
WESTERN MARYLAND

CITY           SKY/WX    TMP DP  RH WIND       PRES   REMARKS
OAKLAND*       FOG       41  41 100 CALM      29.66R VSB<1/4
CUMBERLAND*    CLOUDY    52  50  93 CALM      29.72R

$$

VAZ025>031-051300-
SHENANDOAH VALLEY

CITY           SKY/WX    TMP DP  RH WIND       PRES   REMARKS
WINCHESTER*    CLOUDY    50  48  93 CALM      29.67S FOG
FRONT ROYAL*   CLOUDY    48  48 100 N5        29.66R
LURAY*         RAIN      50  50 100 N13       29.64S
NEW MARKET*    CLOUDY    50  49  96 N8        29.64R
STAUNTON*      CLOUDY    53  53 100 NE5       29.64S
WAYNESBORO*    CLOUDY    50  49  96 NW3       29.62S

$$

WVZ021-048>050-054>055-051300-
EASTERN WEST VIRGINIA PANHANDLE

CITY           SKY/WX    TMP DP  RH WIND       PRES   REMARKS
MARTINSBURG    CLOUDY    50  48  93 VRB7      29.67R FOG
PETERSBURG*    DRIZZLE   53  51  94 N3        29.66R

$$

VAZ036>039-050-051300-
CENTRAL FOOTHILLS

CITY           SKY/WX    TMP DP  RH WIND       PRES   REMARKS
CHARLOTTESVILL CLOUDY    52  49  89 NE9       29.63R FOG
CULPEPER*      DRIZZLE   51  50  97 CALM      29.67R
ORANGE*        CLOUDY    50  50 100 NE6       29.66R
GORDONSVILLE*  CLOUDY    50  50  99 NE9       29.64R FOG
WARRENTON*     CLOUDY    51  46  82 NE7       29.66S

$$

VAZ055>057-051300-
NORTH AND CENTRAL PIEDMONT

CITY           SKY/WX    TMP DP  RH WIND       PRES   REMARKS
FREDERICKSBRG* CLOUDY    52  52 100 NE9       29.65R
STAFFORD*      CLOUDY    50  48  93 NE7       29.70R

$$

NCZ024-NYZ072-PAZ021-071-VAZ022-071-051300-
OTHER REGIONAL OBSERVATIONS

CITY           SKY/WX    TMP DP  RH WIND       PRES   REMARKS
NEW YORK CITY  CLOUDY    48  41  76 NE12      29.73R
PHILADELPHIA   CLOUDY    50  43  77 NE12      29.69S
PITTSBURGH     CLOUDY    50  46  86 NW5       29.69R
ROANOKE        RAIN      50  48  93 W3        29.65R FOG
RICHMOND       DRIZZLE   52  50  93 NE12      29.62R
RALEIGH        CLOUDY    58  56  93 NW5       29.56R FOG

$$

ANZ530>537-051300-
MARINE OBSERVATIONS

STATION/POSITION TIME  TEMP    WIND        PRES
                       AIR SEA DIR/SP/G
                 (UTC) (F)     (DEG/KT/KT) (MB)
THOMAS PT LIGHT  1200   50 58   50/ 14/ 17 1005.6F
BALT KEY BRIDGE  1100   51      30/  9/ 12 1004.5R
COVE POINT       1100   49      30/ 11/ 14 1004.3R
LEWISETTA        1100   51 62   40/  8/ 12 1003.1R
SOLOMONS ISLAND  1100   51 60   40/  9/ 12   N/A
PINEY POINT      1100           60/  9/ 10   N/A

$$





USA.gov is the U.S. government's official web portal to all federal, state and local government web resources and services.